OBJECT F, 63987

Orbit data source: Space-Track

You're viewing an Uncataloged Satellite

Recently launched and/or uncataloged satellites may have evolving metadata. Metadata may include but not limited to: Owner, Maufacturer, Bus, Motor, and Mission.

OBJECT F, 63987 is a Chinese satellite in SSO that was launched on Wed, 14 May 2025 UTC via a CHANG ZHENG 2D launch vehicle from the Jiuquan Satellite Launch Center, China (JSC). Unknown objects in Earth's orbit typically refer to objects detected orbiting the Earth but have not yet been identified or cataloged. These objects could be anything from previously untracked satellites, spent rocket stages, debris from satellite collisions, or even natural meteoroids temporarily captured by Earth's gravity.

Loading next visibility...
Identifier
63987, 2025-100F
Orbit
SSO
Country
Flag of CNCN / PRC
Related business
None
Manufacturer
Unknown
Mission
Operational Commercial Technology
Bus & Motor
Unknown
Mass
Unknown
Launch date (UTC)
2025-05-14 (1 year ago)
Launch vehicle
CHANG ZHENG 2D
Launch site
Jiuquan Satellite Launch Center, China (JSC)
Object type
Unknown
Shape & HBR
Box + 2 Pan, 0.9 m
Radar Cross Section
0.135 m², Large (>1 m²)

Expand to show TLE details & history
Last TLE update: 11 hours ago

TLE from 11 hours ago
0 OBJECT F
1 63987U 25100F   26206.62435903  .00013314  00000-0  60389-3 0  9990
2 63987  97.3624 278.5095 0008984 165.5316 194.6179 15.20908597 66474
Epoch: 2026-07-25T14:59Z
TLE epoch observation values (Epoch: 2026-07-25T14:59:04.620Z)
Latitude
0.00003°
Longitude
110.40628°
Altitude
512.175 km
Speed
7.604 km/s
True Right ascension
18h 34m 02s
True Declination
0° 00' 00"
Sunlit
Object was in full shadow at epoch
Visualization orbit readout
Latitude
Unknown
Longitude
Unknown
Altitude
Unknown
Speed
Unknown
Apparent Right ascension
Unknown
Apparent Declination
Unknown
Sunlit
N/A
Visualization observer readout
Local Sidereal Time
15:23:09
Azimuth
Unknown
Elevation
Unknown
Doppler factor
Unknown
Orbital elements
Apogee altitude
506.241 km
Perigee altitude
493.882 km
Semi-major axis
6,878.198 km
Eccentricity
0.0009
Inclination
97.3624°
RAAN
278.5095°
Arg. of periapsis
165.5316°
True anomaly
194.59195°
Mean anomaly
194.6179°
Eccentric anomaly
194.60492°
Mean motion
3.80479 °/min
Orbital period
94.62 mins
BSTAR
0.00060389
Loading maneuver chart data...
Computing Atmospheric mass density...
Loading historical data...
Loading historical data...
Loading historical data...
Loading historical data...
Loading historical data...
Loading historical data...
Loading historical data...

Documentation

Showing up to 5 results
|